Regional Weather Roundup
Issued by NWS

Home | Current Version | Previous Version | Text Only | Print | Product List | Glossary On
Versions: 1 2 3 4 5 6 7 8 9 10 11 12 13 14 15 16 17 18 19 20 21 22 23 24 25 26 27 28 29 30 31 32 33 34 35 36 37 38 39 40 41 42 43 44 45 46 47 48 49 50
000
ASUS43 KLSX 050807
RWRMO

WEATHER SUMMARY FOR MISSOURI
NATIONAL WEATHER SERVICE SPRINGFIELD MO
300 AM CDT SUN JUL 05 2015

NOTE: "FAIR" INDICATES FEW OR NO CLOUDS BELOW 12,000 FEET WITH NO
       SIGNIFICANT WEATHER AND/OR OBSTRUCTIONS TO VISIBILITY.
       CURRENT SKY AND/OR WEATHER CONDITIONS ARE NOT AVAILABLE FOR
       CHILLICOTHE AND FARMINGTON.

MOZ001>031-035>038-043-044-053-054-050900-
...NORTHERN AND WESTERN MISSOURI...

CITY           SKY/WX    TMP DP  RH WIND       PRES   REMARKS
KANSAS CTY INT CLEAR     68  64  87 SE7       29.99F FOG
KANSAS C DTWN  CLEAR     75  64  68 SE7       29.98F
LEE`S SUMMIT   CLEAR     69  64  84 SE6       30.00F
ST JOSEPH      CLEAR     68  64  87 S3        29.98F
CHILLICOTHE      N/A     65  63  93 CALM      30.02F
KIRKSVILLE     CLEAR     64  62  93 S5        30.05S

$$
MOZ066>068-077>081-088>096-101>105-050900-
...SOUTHWEST MISSOURI...

CITY           SKY/WX    TMP DP  RH WIND       PRES   REMARKS
SPRINGFIELD    PTCLDY    71  68  90 SE7       30.03S
JOPLIN         CLEAR     72  68  87 SE5       30.00S

$$
MOZ032>034-039>042-045>050-055>058-069>072-050900-
...CENTRAL MISSOURI...

CITY           SKY/WX    TMP DP  RH WIND       PRES   REMARKS
COLUMBIA       CLEAR     69  65  86 E7        30.03F
JEFFERSON CITY CLEAR     68  64  87 CALM      30.02F
ROLLA          CLEAR     69  67  93 SE8       30.03F FOG
SEDALIA        PTCLDY    68  64  87 SE5       30.03F FOG
WHITEMAN AFB   CLEAR     68  65  90 SE1       30.00F
WARRENSBURG    CLEAR     64  63  94 E3        30.00F
OSAGE BEACH    CLEAR     70  64  83 CALM      30.03S

$$
MOZ051-052-059>065-050900-
...EAST CENTRAL MISSOURI...

CITY           SKY/WX    TMP DP  RH WIND       PRES   REMARKS
ST LOUIS INTL  CLEAR     71  62  73 CALM      30.05S HAZE
SPIRIT OF STL  MOCLDY    66  65  96 CALM      30.04S FOG
ST CHARLES     CLEAR     69  67  93 CALM      30.04S FOG

$$
MOZ072>076-082>087-097>100-106>115-050900-
...SOUTH CENTRAL AND SOUTHEAST MISSOURI...

CITY           SKY/WX    TMP DP  RH WIND       PRES   REMARKS
CAPE GIRARDEAU PTCLDY    67  67 100 CALM      30.04S
FARMINGTON     CLEAR     66  64  94 SE6       30.09F
POPLAR BLUFF   PTCLDY    70  69  97 NE3       30.02F FOG
WEST PLAINS    CLOUDY    70  68  93 CALM      30.06F FOG

$$



USA.gov is the U.S. government's official web portal to all federal, state and local government web resources and services.